Location: Plainartige
(45.6866°N, 1.7993°E)
Time: 00:58:16
(UTC+00:00)

BEESAT - Pass Details

Date: 01 July 2022
Orbit: 700 x 706 km, 98.6° (Epoch: 16 August)

Event Time Altitude Azimuth Distance (km) Brightness Sun altitude
Rises 20:14:19 0° 15° (NNE) 3,105 ? -4.7°
Reaches altitude 10° 20:16:35 10° 18° (NNE) 2,183 ? -5.0°
Maximum altitude 20:21:22 72° 103° (ESE) 743 ? -5.7°
Drops below altitude 10° 20:26:07 10° 188° (S) 2,170 ? -6.3°
Sets 20:28:23 0° 190° (S) 3,085 ? -6.6°
